FW3031 Weather Reports


time (UTC)temp
C
wind
direction
speed
KPH
gust
KPH
rain 1hr
cm
rain 24hr
cm
rain mn
cm
humidity
%
barometer
mb
20260508022022 33 190 1.6 4.8 0.00 0.00 0.00 34 1006.4
20260508021558 33 0 0.0 4.8 0.00 0.00 0.00 34 1006.1
20260508021521 33 190 0.0 4.8 0.00 0.00 0.00 34 1006.2
20260508021021 34 190 0.0 3.2 0.00 0.00 0.00 33 1006.2
20260508020522 34 190 0.0 3.2 0.00 0.00 0.00 33 1006.1
20260508020059 34 0 0.0 12.9 0.00 0.00 0.00 33 1005.8
20260508020021 34 190 0.0 11.3 0.00 0.00 0.00 33 1005.9
20260508015521 34 190 3.2 12.9 0.00 0.00 0.00 33 1005.7
20260508015020 35 190 4.8 12.9 0.00 0.00 0.00 33 1005.5
20260508014558 35 190 1.6 14.5 0.00 0.00 0.00 31 1005.2
20260508014520 35 190 3.2 12.9 0.00 0.00 0.00 32 1005.3
20260508014020 35 190 1.6 14.5 0.00 0.00 0.00 31 1005.1
20260508013519 35 190 3.2 14.5 0.00 0.00 0.00 29 1005.0
20260508013058 35 190 6.4 14.5 0.00 0.00 0.00 27 1004.8
20260508013021 35 190 4.8 14.5 0.00 0.00 0.00 27 1004.9
20260508012519 36 190 4.8 11.3 0.00 0.00 0.00 25 1004.7
20260508012019 36 190 1.6 8.0 0.00 0.00 0.00 24 1004.6
20260508011611 36 0 0.0 6.4 0.00 0.00 0.00 24 1004.4
20260508011523 36 190 0.0 4.8 0.00 0.00 0.00 24 1004.4
20260508011019 36 190 1.6 6.4 0.00 0.00 0.00 24 1004.4
20260508010519 36 190 1.6 8.0 0.00 0.00 0.00 24 1004.3
20260508010108 36 190 1.6 11.3 0.00 0.00 0.00 23 1004.1
20260508010019 36 190 0.0 11.3 0.00 0.00 0.00 24 1004.2
20260508005520 37 190 1.6 6.4 0.00 0.00 0.00 23 1004.0
20260508005018 37 190 0.0 8.0 0.00 0.00 0.00 23 1003.9
20260508004604 37 190 1.6 6.4 0.00 0.00 0.00 22 1003.9
20260508004524 37 190 0.0 6.4 0.00 0.00 0.00 23 1004.0
20260508004017 37 190 0.0 8.0 0.00 0.00 0.00 22 1003.9
20260508003517 37 190 3.2 9.7 0.00 0.00 0.00 22 1003.9
20260508003111 38 0 3.2 9.7 0.00 0.00 0.00 21 1003.8
20260508003017 38 190 4.8 9.7 0.00 0.00 0.00 22 1003.8
20260508002518 38 190 3.2 11.3 0.00 0.00 0.00 22 1003.7
20260508002018 38 190 1.6 11.3 0.00 0.00 0.00 22 1003.7
20260508001556 38 190 4.8 9.7 0.00 0.00 0.00 21 1003.7
20260508001517 38 190 3.2 9.7 0.00 0.00 0.00 22 1003.7
20260508001018 38 190 3.2 9.7 0.00 0.00 0.00 21 1003.7
20260508000519 38 190 1.6 11.3 0.00 0.00 0.00 22 1003.6
20260508000057 38 190 4.8 11.3 0.00 0.00 0.00 21 1003.6
20260508000016 38 190 4.8 11.3 0.00 0.00 0.00 22 1003.6
20260507235516 38 190 4.8 11.3 0.00 0.00 0.00 22 1003.5
20260507235015 38 190 3.2 11.3 0.00 0.00 0.00 22 1003.5
20260507234558 38 190 3.2 11.3 0.00 0.00 0.00 22 1003.5
20260507234520 38 190 1.6 11.3 0.00 0.00 0.00 23 1003.5
20260507234017 38 190 3.2 12.9 0.00 0.00 0.00 22 1003.5
20260507233520 38 190 4.8 12.9 0.00 0.00 0.00 22 1003.5
20260507233059 38 190 4.8 11.3 0.00 0.00 0.00 22 1003.6
20260507233020 38 190 3.2 11.3 0.00 0.00 0.00 23 1003.5
20260507232514 38 190 4.8 11.3 0.00 0.00 0.00 23 1003.5
20260507232014 38 190 3.2 12.9 0.00 0.00 0.00 23 1003.5
20260507231608 38 190 4.8 12.9 0.00 0.00 0.00 23 1003.5
20260507231524 38 190 3.2 12.9 0.00 0.00 0.00 23 1003.5
20260507231016 38 190 4.8 12.9 0.00 0.00 0.00 23 1003.5
20260507230513 38 190 4.8 12.9 0.00 0.00 0.00 23 1003.4
20260507230058 38 190 0.0 14.5 0.00 0.00 0.00 23 1003.5
20260507230013 38 190 0.0 14.5 0.00 0.00 0.00 23 1003.4
20260507225512 38 190 3.2 16.1 0.00 0.00 0.00 23 1003.5
20260507225012 38 190 6.4 16.1 0.00 0.00 0.00 23 1003.5
20260507224607 38 190 6.4 12.9 0.00 0.00 0.00 22 1003.6
20260507224512 38 190 4.8 12.9 0.00 0.00 0.00 23 1003.6
20260507224011 38 190 1.6 16.1 0.00 0.00 0.00 23 1003.6
20260507223512 38 190 6.4 16.1 0.00 0.00 0.00 23 1003.6
20260507223058 38 190 3.2 14.5 0.00 0.00 0.00 22 1003.6
20260507223010 38 190 1.6 9.7 0.00 0.00 0.00 23 1003.6
20260507222510 38 190 1.6 14.5 0.00 0.00 0.00 23 1003.8
20260507222008 38 190 4.8 14.5 0.00 0.00 0.00 23 1003.9
20260507221559 39 190 3.2 9.7 0.00 0.00 0.00 23 1003.8
20260507221514 39 190 3.2 9.7 0.00 0.00 0.00 23 1003.8
20260507221011 39 190 0.0 6.4 0.00 0.00 0.00 24 1003.8
20260507220505 39 190 0.0 3.2 0.00 0.00 0.00 24 1003.9
20260507220101 38 0 0.0 11.3 0.00 0.00 0.00 24 1004.1
20260507220006 38 190 0.0 4.8 0.00 0.00 0.00 24 1004.1
20260507215505 38 190 0.0 11.3 0.00 0.00 0.00 25 1004.2
20260507215105 38 190 4.8 11.3 0.00 0.00 0.00 25 1004.3
20260507214610 38 190 4.8 12.9 0.00 0.00 0.00 24 1004.4
20260507214502 38 190 3.2 12.9 0.00 0.00 0.00 25 1004.3
20260507214102 38 190 1.6 11.3 0.00 0.00 0.00 25 1004.4
20260507213559 38 190 4.8 12.9 0.00 0.00 0.00 25 1004.4
20260507213108 38 190 3.2 12.9 0.00 0.00 0.00 25 1004.6
20260507212558 38 190 1.6 9.7 0.00 0.00 0.00 25 1004.6
20260507212056 38 190 0.0 11.3 0.00 0.00 0.00 26 1004.7
20260507211558 38 190 3.2 12.9 0.00 0.00 0.00 25 1004.9
20260507211556 38 190 1.6 11.3 0.00 0.00 0.00 26 1004.8
20260507211055 38 190 4.8 12.9 0.00 0.00 0.00 26 1004.9
20260507210554 38 190 4.8 12.9 0.00 0.00 0.00 26 1004.9
20260507210057 37 190 1.6 8.0 0.00 0.00 0.00 26 1005.2
20260507210053 37 190 1.6 8.0 0.00 0.00 0.00 27 1005.0
20260507205552 37 190 0.0 8.0 0.00 0.00 0.00 27 1005.2
20260507205051 37 190 4.8 9.7 0.00 0.00 0.00 27 1005.3
20260507204612 37 190 0.0 17.7 0.00 0.00 0.00 26 1005.5
20260507204551 37 190 1.6 17.7 0.00 0.00 0.00 27 1005.4
20260507204050 37 190 8.0 17.7 0.00 0.00 0.00 27 1005.6
20260507203548 37 190 0.0 6.4 0.00 0.00 0.00 27 1005.6
20260507203058 37 0 0.0 8.0 0.00 0.00 0.00 28 1005.9
20260507203054 37 190 0.0 8.0 0.00 0.00 0.00 28 1005.8
20260507202547 37 190 3.2 8.0 0.00 0.00 0.00 28 1006.0
20260507202044 37 190 0.0 14.5 0.00 0.00 0.00 28 1006.1
20260507201556 37 190 6.4 14.5 0.00 0.00 0.00 28 1006.3
20260507201544 37 190 8.0 14.5 0.00 0.00 0.00 28 1006.2
20260507201048 37 190 1.6 11.3 0.00 0.00 0.00 28 1006.4
20260507200541 37 190 3.2 17.7 0.00 0.00 0.00 28 1006.5
20260507200057 37 190 6.4 17.7 0.00 0.00 0.00 28 1006.5
20260507200048 37 190 8.0 17.7 0.00 0.00 0.00 28 1006.6
20260507195540 37 190 1.6 9.7 0.00 0.00 0.00 29 1006.7
20260507195038 37 190 1.6 9.7 0.00 0.00 0.00 30 1006.9
20260507194559 37 190 1.6 6.4 0.00 0.00 0.00 29 1006.9
20260507194537 37 190 1.6 9.7 0.00 0.00 0.00 30 1007.0
20260507194035 36 190 0.0 8.0 0.00 0.00 0.00 31 1007.1
20260507193535 36 190 3.2 8.0 0.00 0.00 0.00 31 1007.3
20260507193108 36 190 3.2 9.7 0.00 0.00 0.00 31 1007.3
20260507193034 36 190 3.2 9.7 0.00 0.00 0.00 31 1007.5
20260507192531 36 190 3.2 9.7 0.00 0.00 0.00 32 1007.6
20260507192030 36 190 1.6 11.3 0.00 0.00 0.00 32 1007.8
20260507191600 36 190 4.8 14.5 0.00 0.00 0.00 32 1007.8
20260507191531 36 190 3.2 14.5 0.00 0.00 0.00 32 1007.9
20260507191027 36 190 4.8 14.5 0.00 0.00 0.00 31 1008.1
20260507190526 36 190 1.6 4.8 0.00 0.00 0.00 32 1008.1
20260507190104 36 190 1.6 8.0 0.00 0.00 0.00 32 1008.0
20260507190025 36 190 1.6 8.0 0.00 0.00 0.00 32 1008.2
20260507185526 35 190 1.6 8.0 0.00 0.00 0.00 33 1008.3
20260507185022 35 190 1.6 8.0 0.00 0.00 0.00 33 1008.4
20260507184558 35 190 0.0 9.7 0.00 0.00 0.00 33 1008.4
20260507184522 35 190 0.0 9.7 0.00 0.00 0.00 33 1008.5
20260507184021 35 190 4.8 9.7 0.00 0.00 0.00 33 1008.6
20260507183519 35 190 0.0 6.4 0.00 0.00 0.00 34 1008.8
20260507183100 35 190 1.6 11.3 0.00 0.00 0.00 34 1008.8
20260507183031 35 190 1.6 8.0 0.00 0.00 0.00 34 1008.9
20260507182516 35 190 0.0 11.3 0.00 0.00 0.00 35 1009.0
20260507182017 34 190 1.6 11.3 0.00 0.00 0.00 36 1009.2
20260507181557 33 190 3.2 11.3 0.00 0.00 0.00 36 1009.3
20260507181514 33 190 3.2 11.3 0.00 0.00 0.00 36 1009.5
20260507181015 33 190 3.2 11.3 0.00 0.00 0.00 36 1009.7
20260507180512 33 190 1.6 14.5 0.00 0.00 0.00 36 1009.8
20260507180105 33 190 4.8 14.5 0.00 0.00 0.00 35 1009.6
20260507180013 33 190 3.2 14.5 0.00 0.00 0.00 36 1009.8
20260507175513 33 190 4.8 12.9 0.00 0.00 0.00 36 1009.9
20260507175009 33 190 0.0 4.8 0.00 0.00 0.00 36 1010.1
20260507174559 33 0 1.6 4.8 0.00 0.00 0.00 35 1010.0
20260507174510 33 190 1.6 4.8 0.00 0.00 0.00 36 1010.2
20260507174006 33 190 1.6 8.0 0.00 0.00 0.00 37 1010.2
20260507173504 33 190 0.0 8.0 0.00 0.00 0.00 37 1010.3
20260507173059 33 0 0.0 4.8 0.00 0.00 0.00 38 1010.2
20260507173004 32 190 0.0 4.8 0.00 0.00 0.00 38 1010.4
20260507172503 32 190 1.6 4.8 0.00 0.00 0.00 39 1010.5
20260507172003 32 190 3.2 6.4 0.00 0.00 0.00 39 1010.7
20260507171604 32 190 1.6 8.0 0.00 0.00 0.00 38 1010.4
20260507171502 32 190 1.6 6.4 0.00 0.00 0.00 38 1010.8
20260507171002 32 190 0.0 8.0 0.00 0.00 0.00 40 1010.9
20260507170603 32 190 3.2 8.0 0.00 0.00 0.00 39 1011.0
20260507170100 32 190 0.0 9.7 0.00 0.00 0.00 40 1011.1
20260507170056 32 190 3.2 9.7 0.00 0.00 0.00 40 1010.7
20260507165600 31 190 0.0 3.2 0.00 0.00 0.00 41 1011.2
20260507165101 31 190 0.0 3.2 0.00 0.00 0.00 42 1011.3
20260507164611 31 190 0.0 3.2 0.00 0.00 0.00 41 1011.4
20260507164557 31 0 1.6 3.2 0.00 0.00 0.00 41 1011.1
20260507164058 31 190 0.0 0.0 0.00 0.00 0.00 41 1011.6
20260507163559 31 190 0.0 4.8 0.00 0.00 0.00 43 1011.7
20260507163059 31 0 1.6 4.8 0.00 0.00 0.00 43 1011.4
20260507163055 30 190 0.0 4.8 0.00 0.00 0.00 43 1011.8
20260507162556 30 190 1.6 4.8 0.00 0.00 0.00 43 1011.8
20260507162054 30 190 0.0 4.8 0.00 0.00 0.00 44 1011.9
20260507161610 30 190 0.0 4.8 0.00 0.00 0.00 44 1011.6
20260507161558 30 190 0.0 4.8 0.00 0.00 0.00 44 1012.0
20260507161051 30 190 0.0 4.8 0.00 0.00 0.00 45 1012.1
20260507160550 30 190 0.0 3.2 0.00 0.00 0.00 46 1012.1
20260507160051 29 190 0.0 4.8 0.00 0.00 0.00 46 1012.2
20260507155550 29 190 0.0 6.4 0.00 0.00 0.00 46 1012.4
20260507155050 29 190 1.6 6.4 0.00 0.00 0.00 46 1012.5
20260507154558 29 0 0.0 4.8 0.00 0.00 0.00 46 1012.1
20260507154551 29 190 0.0 4.8 0.00 0.00 0.00 47 1012.5
20260507154048 28 190 0.0 4.8 0.00 0.00 0.00 47 1012.6
20260507153547 28 190 0.0 3.2 0.00 0.00 0.00 48 1012.6
20260507153059 28 190 1.6 4.8 0.00 0.00 0.00 47 1012.1
20260507153049 28 190 1.6 4.8 0.00 0.00 0.00 48 1012.6
20260507152546 28 190 0.0 4.8 0.00 0.00 0.00 48 1012.6
20260507152047 28 190 0.0 4.8 0.00 0.00 0.00 49 1012.7
20260507151558 28 190 0.0 3.2 0.00 0.00 0.00 49 1012.2
20260507151545 28 190 0.0 3.2 0.00 0.00 0.00 49 1012.7
20260507151042 28 190 0.0 3.2 0.00 0.00 0.00 50 1012.7
20260507150541 27 190 0.0 3.2 0.00 0.00 0.00 50 1012.7
20260507150100 28 0 0.0 0.0 0.00 0.00 0.00 50 1012.3
20260507150042 27 190 0.0 0.0 0.00 0.00 0.00 50 1012.8
20260507145541 27 190 0.0 0.0 0.00 0.00 0.00 51 1012.8
20260507145040 27 190 0.0 0.0 0.00 0.00 0.00 51 1012.8
20260507144600 27 0 0.0 0.0 0.00 0.00 0.00 51 1012.2
20260507144538 27 190 0.0 0.0 0.00 0.00 0.00 51 1012.8
20260507144037 27 190 0.0 0.0 0.00 0.00 0.00 53 1012.8
20260507143535 27 190 0.0 0.0 0.00 0.00 0.00 53 1012.8
20260507143102 26 0 0.0 0.0 0.00 0.00 0.00 54 1012.3
20260507143036 26 190 0.0 0.0 0.00 0.00 0.00 54 1012.8
20260507142533 26 190 0.0 0.0 0.00 0.00 0.00 56 1012.8
20260507142033 25 190 0.0 0.0 0.00 0.00 0.00 56 1012.8
20260507141603 25 0 0.0 0.0 0.00 0.00 0.00 57 1012.2
20260507141533 25 190 0.0 0.0 0.00 0.00 0.00 58 1012.9
20260507141033 25 190 0.0 0.0 0.00 0.00 0.00 59 1012.8
20260507140532 24 190 0.0 0.0 0.00 0.00 0.00 60 1012.8
20260507140125 24 0 0.0 0.0 0.00 0.00 0.00 60 1012.1
20260507140032 24 190 0.0 0.0 0.00 0.00 0.00 60 1012.8
20260507135532 23 190 0.0 0.0 0.00 0.00 0.00 62 1012.8
20260507135032 23 190 0.0 0.0 0.00 0.00 0.00 62 1012.8
20260507134600 23 0 0.0 1.6 0.00 0.00 0.00 62 1012.0
20260507134539 23 190 0.0 0.0 0.00 0.00 0.00 63 1012.8
20260507134032 23 190 0.0 1.6 0.00 0.00 0.00 63 1012.7
20260507133529 22 190 0.0 1.6 0.00 0.00 0.00 64 1012.7
20260507133100 22 0 0.0 1.6 0.00 0.00 0.00 64 1011.8
20260507133030 22 190 0.0 1.6 0.00 0.00 0.00 65 1012.7
20260507132529 22 190 0.0 1.6 0.00 0.00 0.00 65 1012.6
20260507132029 22 190 0.0 0.0 0.00 0.00 0.00 66 1012.6
20260507131616 22 0 0.0 0.0 0.00 0.00 0.00 66 1011.7
20260507131535 22 190 0.0 0.0 0.00 0.00 0.00 66 1012.5
20260507131028 21 190 0.0 0.0 0.00 0.00 0.00 67 1012.4
20260507130526 21 190 0.0 3.2 0.00 0.00 0.00 67 1012.3
20260507130112 21 0 1.6 4.8 0.00 0.00 0.00 67 1011.5
20260507130029 21 190 1.6 3.2 0.00 0.00 0.00 67 1012.2
20260507125525 21 190 0.0 4.8 0.00 0.00 0.00 67 1012.1
20260507125023 21 190 0.0 4.8 0.00 0.00 0.00 68 1012.0
20260507124609 21 0 0.0 0.0 0.00 0.00 0.00 67 1011.3
20260507124523 21 190 0.0 0.0 0.00 0.00 0.00 68 1012.0
20260507124022 21 190 0.0 0.0 0.00 0.00 0.00 67 1011.9
20260507123524 21 190 0.0 0.0 0.00 0.00 0.00 67 1011.9
20260507123101 21 0 0.0 0.0 0.00 0.00 0.00 67 1011.2
20260507123022 21 190 0.0 0.0 0.00 0.00 0.00 67 1011.8
20260507122521 21 190 0.0 0.0 0.00 0.00 0.00 68 1011.8
20260507122022 21 190 0.0 3.2 0.00 0.00 0.00 68 1011.8
20260507121558 21 0 0.0 3.2 0.00 0.00 0.00 67 1011.2
20260507121521 21 190 0.0 3.2 0.00 0.00 0.00 68 1011.8
20260507121020 21 190 0.0 3.2 0.00 0.00 0.00 67 1011.7
20260507120519 21 190 0.0 0.0 0.00 0.00 0.00 67 1011.6
20260507120058 21 0 0.0 0.0 0.00 0.00 0.00 67 1011.1
20260507120018 21 190 0.0 0.0 0.00 0.00 0.00 68 1011.6
20260507115517 21 190 0.0 0.0 0.00 0.00 0.00 68 1011.4
20260507115016 21 190 0.0 0.0 0.00 0.00 0.00 67 1011.4
20260507114605 21 0 0.0 0.0 0.00 0.00 0.00 66 1010.7
20260507114524 21 190 0.0 0.0 0.00 0.00 0.00 67 1011.3
20260507114015 21 190 0.0 0.0 0.00 0.00 0.00 66 1011.2
20260507113513 21 190 0.0 0.0 0.00 0.00 0.00 66 1011.2
20260507113100 21 0 0.0 0.0 0.00 0.00 0.00 65 1010.7
20260507113013 21 190 0.0 0.0 0.00 0.00 0.00 66 1011.2
20260507112513 21 190 0.0 0.0 0.00 0.00 0.00 66 1011.2
20260507112012 22 190 0.0 1.6 0.00 0.00 0.00 65 1011.2
20260507111556 22 0 0.0 3.2 0.00 0.00 0.00 64 1010.6
20260507111519 22 190 0.0 1.6 0.00 0.00 0.00 65 1011.1
20260507111010 22 190 0.0 3.2 0.00 0.00 0.00 65 1011.0
20260507110511 22 190 0.0 3.2 0.00 0.00 0.00 64 1010.9
20260507110057 22 190 0.0 3.2 0.00 0.00 0.00 63 1010.4
20260507110009 22 190 0.0 3.2 0.00 0.00 0.00 64 1010.9
20260507105508 22 190 0.0 0.0 0.00 0.00 0.00 64 1010.8
20260507105007 22 190 0.0 0.0 0.00 0.00 0.00 63 1010.7
20260507104556 22 0 0.0 0.0 0.00 0.00 0.00 63 1010.3
20260507104508 22 190 0.0 0.0 0.00 0.00 0.00 63 1010.7
20260507104007 22 190 0.0 0.0 0.00 0.00 0.00 63 1010.7
20260507103507 22 190 0.0 3.2 0.00 0.00 0.00 63 1010.8
20260507103059 22 190 0.0 4.8 0.00 0.00 0.00 63 1010.3
20260507103005 22 190 0.0 4.8 0.00 0.00 0.00 63 1010.7
20260507102505 22 190 1.6 4.8 0.00 0.00 0.00 63 1010.7
20260507102006 22 190 0.0 0.0 0.00 0.00 0.00 62 1010.7
20260507101556 23 0 0.0 0.0 0.00 0.00 0.00 62 1010.2
20260507101508 23 190 0.0 0.0 0.00 0.00 0.00 62 1010.7
20260507101002 23 190 0.0 0.0 0.00 0.00 0.00 62 1010.7
20260507100502 23 190 0.0 0.0 0.00 0.00 0.00 62 1010.6
20260507100058 23 0 0.0 3.2 0.00 0.00 0.00 61 1010.2
20260507100001 23 190 0.0 3.2 0.00 0.00 0.00 62 1010.7
20260507095501 23 190 0.0 3.2 0.00 0.00 0.00 62 1010.7
20260507095100 23 190 0.0 3.2 0.00 0.00 0.00 62 1010.6
20260507094613 23 190 0.0 3.2 0.00 0.00 0.00 61 1010.5
20260507094600 23 0 1.6 3.2 0.00 0.00 0.00 60 1010.1
20260507094058 23 190 0.0 0.0 0.00 0.00 0.00 60 1010.6
20260507093541 23 190 0.0 0.0 0.00 0.00 0.00 60 1010.6
20260507093058 23 0 0.0 0.0 0.00 0.00 0.00 59 1010.0
20260507093042 23 190 0.0 0.0 0.00 0.00 0.00 60 1010.5
20260507092541 23 190 0.0 0.0 0.00 0.00 0.00 60 1010.5
20260507092042 23 190 0.0 0.0 0.00 0.00 0.00 60 1010.5
20260507091606 24 0 0.0 0.0 0.00 0.00 0.00 59 1010.1
20260507091552 23 190 0.0 0.0 0.00 0.00 0.00 60 1010.5
20260507091040 23 190 0.0 0.0 0.00 0.00 0.00 60 1010.5
20260507090540 23 190 0.0 0.0 0.00 0.00 0.00 60 1010.6
20260507090057 23 0 0.0 0.0 0.00 0.00 0.00 60 1010.0
20260507090045 23 190 0.0 0.0 0.00 0.00 0.00 60 1010.6
20260507085539 23 190 0.0 0.0 0.00 0.00 0.00 60 1010.6
20260507085039 23 190 0.0 4.8 0.00 0.00 0.00 60 1010.7
20260507084558 23 0 0.0 4.8 0.00 0.00 0.00 59 1010.3
20260507084541 23 190 0.0 4.8 0.00 0.00 0.00 60 1010.7
20260507084037 23 190 1.6 4.8 0.00 0.00 0.00 60 1010.7
20260507083537 23 190 0.0 6.4 0.00 0.00 0.00 59 1010.6
20260507083104 23 0 1.6 6.4 0.00 0.00 0.00 59 1010.2
20260507083039 23 190 1.6 6.4 0.00 0.00 0.00 59 1010.6
20260507082536 24 190 0.0 4.8 0.00 0.00 0.00 59 1010.6
20260507082035 24 190 0.0 4.8 0.00 0.00 0.00 59 1010.7
20260507081557 24 190 0.0 4.8 0.00 0.00 0.00 58 1010.3
20260507081534 24 190 0.0 4.8 0.00 0.00 0.00 58 1010.7
20260507081033 24 190 1.6 4.8 0.00 0.00 0.00 58 1010.7
20260507080532 25 190 0.0 3.2 0.00 0.00 0.00 57 1010.7
20260507080134 25 0 0.0 6.4 0.00 0.00 0.00 57 1010.3
20260507080031 24 190 0.0 6.4 0.00 0.00 0.00 57 1010.7
20260507075530 25 190 3.2 6.4 0.00 0.00 0.00 57 1010.8
20260507075029 25 190 0.0 8.0 0.00 0.00 0.00 56 1010.9
20260507074605 25 190 0.0 6.4 0.00 0.00 0.00 56 1010.6
20260507074538 25 190 1.6 6.4 0.00 0.00 0.00 56 1010.9
20260507074026 25 190 0.0 0.0 0.00 0.00 0.00 56 1010.9
20260507073525 25 190 0.0 0.0 0.00 0.00 0.00 55 1010.9
20260507073111 26 0 0.0 0.0 0.00 0.00 0.00 55 1010.7
20260507073025 25 190 0.0 0.0 0.00 0.00 0.00 55 1011.0
20260507072525 25 190 0.0 0.0 0.00 0.00 0.00 55 1011.0
20260507072024 25 190 0.0 3.2 0.00 0.00 0.00 55 1011.0
20260507071606 26 0 0.0 3.2 0.00 0.00 0.00 54 1010.8
20260507071523 26 190 0.0 3.2 0.00 0.00 0.00 55 1011.2
20260507071022 26 190 0.0 0.0 0.00 0.00 0.00 54 1011.2
20260507070522 26 190 0.0 3.2 0.00 0.00 0.00 54 1011.3
20260507070108 26 0 0.0 3.2 0.00 0.00 0.00 54 1011.0
20260507070020 26 190 0.0 3.2 0.00 0.00 0.00 54 1011.2
20260507065524 26 190 0.0 3.2 0.00 0.00 0.00 54 1011.1
20260507065020 26 190 0.0 4.8 0.00 0.00 0.00 54 1011.1
20260507064602 26 190 3.2 4.8 0.00 0.00 0.00 53 1010.9
20260507064520 26 190 1.6 4.8 0.00 0.00 0.00 53 1011.1
20260507064020 26 190 1.6 4.8 0.00 0.00 0.00 53 1011.2
20260507063520 26 190 1.6 3.2 0.00 0.00 0.00 52 1011.2
20260507063101 27 190 0.0 3.2 0.00 0.00 0.00 52 1011.0
20260507063019 27 190 0.0 3.2 0.00 0.00 0.00 52 1011.2
20260507062519 27 190 0.0 1.6 0.00 0.00 0.00 51 1011.2
20260507062019 27 190 0.0 0.0 0.00 0.00 0.00 52 1011.2
20260507061558 27 0 0.0 0.0 0.00 0.00 0.00 51 1011.0
20260507061520 27 190 0.0 0.0 0.00 0.00 0.00 52 1011.2
20260507061020 27 190 0.0 4.8 0.00 0.00 0.00 52 1011.2
20260507060518 27 190 0.0 6.4 0.00 0.00 0.00 52 1011.2
20260507060103 27 190 0.0 6.4 0.00 0.00 0.00 51 1010.9
20260507060018 27 190 1.6 6.4 0.00 0.00 0.00 52 1011.1
20260507055518 27 190 0.0 1.6 0.00 0.00 0.00 51 1011.1
20260507055018 27 190 0.0 6.4 0.00 0.00 0.00 51 1011.1
20260507054607 27 190 1.6 6.4 0.00 0.00 0.00 50 1010.9
20260507054518 27 190 0.0 6.4 0.00 0.00 0.00 51 1011.1
20260507054017 27 190 1.6 6.4 0.00 0.00 0.00 51 1011.1
20260507053518 27 190 1.6 6.4 0.00 0.00 0.00 50 1011.1
20260507053100 28 190 1.6 6.4 0.00 0.00 0.00 49 1010.9
20260507053017 28 190 1.6 6.4 0.00 0.00 0.00 50 1011.1
20260507052516 28 190 1.6 8.0 0.00 0.00 0.00 50 1011.1
20260507052017 28 190 1.6 8.0 0.00 0.00 0.00 49 1011.0
20260507051600 28 0 1.6 6.4 0.00 0.00 0.00 49 1010.9
20260507051524 28 190 1.6 6.4 0.00 0.00 0.00 49 1011.0
20260507051016 28 190 1.6 6.4 0.00 0.00 0.00 49 1011.0
20260507050516 28 190 0.0 8.0 0.00 0.00 0.00 49 1010.9
20260507050057 28 0 1.6 8.0 0.00 0.00 0.00 48 1010.7
20260507050016 28 190 0.0 8.0 0.00 0.00 0.00 48 1010.9
20260507045516 28 190 1.6 9.7 0.00 0.00 0.00 48 1010.9
20260507045016 28 190 1.6 9.7 0.00 0.00 0.00 47 1010.9
20260507044621 29 190 3.2 8.0 0.00 0.00 0.00 46 1010.7
20260507044516 29 190 1.6 8.0 0.00 0.00 0.00 47 1010.9
20260507044017 29 190 0.0 8.0 0.00 0.00 0.00 47 1010.9
20260507043516 29 190 1.6 8.0 0.00 0.00 0.00 46 1010.7
20260507043059 29 0 0.0 6.4 0.00 0.00 0.00 45 1010.5
20260507043015 29 190 0.0 6.4 0.00 0.00 0.00 46 1010.7
20260507042515 29 190 1.6 6.4 0.00 0.00 0.00 45 1010.6
20260507042014 30 190 1.6 6.4 0.00 0.00 0.00 45 1010.5
20260507041607 30 190 0.0 6.4 0.00 0.00 0.00 44 1010.2
20260507041514 30 190 0.0 6.4 0.00 0.00 0.00 45 1010.4
20260507041014 30 190 0.0 4.8 0.00 0.00 0.00 45 1010.2
20260507040515 30 190 1.6 4.8 0.00 0.00 0.00 44 1010.0
20260507040108 30 0 0.0 4.8 0.00 0.00 0.00 43 1009.9
20260507040014 30 190 0.0 4.8 0.00 0.00 0.00 44 1009.9
20260507035514 30 190 0.0 8.0 0.00 0.00 0.00 44 1009.8
20260507035014 30 190 1.6 8.0 0.00 0.00 0.00 43 1009.7
20260507034559 30 190 1.6 8.0 0.00 0.00 0.00 42 1009.6
20260507034520 30 190 1.6 8.0 0.00 0.00 0.00 43 1009.7
20260507034013 30 190 1.6 8.0 0.00 0.00 0.00 43 1009.5
20260507033516 31 190 1.6 8.0 0.00 0.00 0.00 43 1009.4
20260507033059 31 190 3.2 8.0 0.00 0.00 0.00 42 1009.5
20260507033013 31 190 1.6 8.0 0.00 0.00 0.00 42 1009.3
20260507032513 31 190 0.0 4.8 0.00 0.00 0.00 42 1009.3
20260507032012 31 190 0.0 8.0 0.00 0.00 0.00 42 1009.2
20260507031605 31 190 0.0 9.7 0.00 0.00 0.00 41 1009.2
20260507031513 31 190 0.0 9.7 0.00 0.00 0.00 42 1009.1
20260507031012 31 190 3.2 8.0 0.00 0.00 0.00 42 1009.0
20260507030513 31 190 0.0 6.4 0.00 0.00 0.00 41 1009.0
20260507030105 31 190 0.0 3.2 0.00 0.00 0.00 41 1009.1
20260507030017 31 190 0.0 3.2 0.00 0.00 0.00 41 1008.9
20260507025511 31 190 0.0 0.0 0.00 0.00 0.00 41 1008.9
20260507025011 31 190 0.0 0.0 0.00 0.00 0.00 41 1009.0
20260507024556 31 0 0.0 6.4 0.00 0.00 0.00 40 1009.0
20260507024516 31 190 0.0 3.2 0.00 0.00 0.00 41 1008.8
20260507024010 31 190 0.0 6.4 0.00 0.00 0.00 40 1008.7
20260507023513 32 190 0.0 6.4 0.00 0.00 0.00 40 1008.6
20260507023058 32 190 1.6 6.4 0.00 0.00 0.00 39 1008.5
20260507023010 32 190 1.6 6.4 0.00 0.00 0.00 40 1008.5
20260507022510 32 190 0.0 0.0 0.00 0.00 0.00 40 1008.4